Regional Weather Roundup
Issued by NWS Newport/Morehead, NC

Current Version | Previous Version | Graphics & Text | Print | Product List | Glossary Off
Versions: 1 2 3 4 5 6 7 8 9 10 11 12 13 14 15 16 17 18 19 20 21 22 23 24 25 26 27 28 29 30 31 32 33 34 35 36 37 38 39 40 41 42 43 44 45 46 47 48 49 50
000 ASUS42 KMHX 280725 RWRMHX WEATHER ROUNDUP FOR EASTERN NORTH CAROLINA NATIONAL WEATHER SERVICE NEWPORT/MOREHEAD CITY NC 300 AM EDT WED JUN 28 2017 NOTE: "FAIR" INDICATES FEW OR NO CLOUDS BELOW 12,000 FEET WITH NO SIGNIFICANT WEATHER AND/OR OBSTRUCTIONS TO VISIBILITY NCZ015>017-031-032-045>047-102-103-280800- NORTH COAST CITY SKY/WX TMP DP RH WIND PRES REMARKS EDENTON CLEAR 64 60 87 CALM 30.09S ELIZABETH CITY CLEAR 64 63 96 CALM 30.08F KITTY HAWK SUNNY 71 62 75 CALM 30.07S MANTEO CLEAR 67 62 82 N3 30.08S $$ NCZ045>047-081-094-103-104-280800- CENTRAL COAST CITY SKY/WX TMP DP RH WIND PRES REMARKS FRISCO NOT AVBL $$ NCZ095-097-098-100-101-280800- SOUTHERN COAST CITY SKY/WX TMP DP RH WIND PRES REMARKS BEAUFORT CLEAR 70 61 73 N7 30.08S CEDAR ISLAND NOT AVBL JACKSONVILLE PTCLDY 69 62 78 N3 30.09R PINEY ISLAND SUNNY N/A N/A N/A N9 30.07S WILMINGTON CLEAR 68 60 75 N6 30.09R $$ NCZ011>013-027>030-043-044-078>080-089-090>093-098-280800- COASTAL PLAIN CITY SKY/WX TMP DP RH WIND PRES REMARKS AHOSKIE N/A 57 56 97 CALM 30.10R CLINTON PTCLDY 64 61 91 CALM 30.11S ELIZABETHTOWN NOT AVBL GOLDSBORO PTCLDY 63 62 97 CALM 30.09S GREENVILLE FOG 61 61 100 CALM 30.11S VSB 1 HAVELOCK PTCLDY 72 58 61 N8 30.10R KENANSVILLE PTCLDY 59 59 100 CALM 30.11R KINSTON CLEAR 60 57 91 CALM 30.11S NEW BERN CLEAR 66 60 81 N3 30.11R RICHLANDS PTCLDY 64 60 87 N5 30.10S ROCKY MOUNT CLEAR 60 59 96 CALM 30.10S WASHINGTON N/A N/A N/A N/A CALM 30.10S WHITEVILLE PTCLDY 65 61 86 CALM 30.10R $$ AMZ130-135-150-152-154-156-158-170-250-252-270-ANZ085-086-088-633-658-670-280800- MARINE OBSERVATIONS STATION/POSITION TIME TEMP WIND PRES WAVE SWELL AIR SEA DIR/SP/G HT/PER HT/PER (UTC) (F) (DEG/KT/KT) (MB) (FT/S) (FT/S) CHESAPEAKE LIGHT NOT AVBL 64 E VA BEACH 0650 74 75 340/ 8/ 8 1018.6 2/ 8 2/ 8 DUCK 0700 74 74 310/ 7/ 8 1018.0 2 E DUCK NOT AVBL OREGON INLET 0700 71 78 360/ 1/ 1 1018.2 13E OREGON INLT 0648 75 N/A 2/ 7 2/ 7 HATTERAS CG 0700 77 79 20/ 13/ 16 1018.0 DIAMOND BUOY 0650 78 81 360/ 14/ 16 1017.7 2/ 8 2/ 8 CAPE LOOKOUT 0700 75 360/ 12/ 14 1018.1 BEAUFORT LAB 0700 74 79 10/ 8/ 10 1018.0 30 SE NEW RVR IN 0708 78 81 30/ 16/ 19 1018.3 30 SE NEW RVR IN 0713 81 N/A 2/ 3 27 SE WRIGHTSVLE 0708 79 81 60/ 16/ 21 1017.8 5 SE WRIGHTSVLE 0708 77 79 40/ 14/ 19 1018.5 225 S CAPE HAT 0650 79 80 220/ 6/ 8 1017.1 3/ 5 3/ 5 41 SE CHARLESTON 0710 79 81 20/ 8/ 10 1017.3 $$

USA.gov is the U.S. government's official web portal to all federal, state and local government web resources and services.